Flag Weather past 2 weeks in Livonia, Michigan, U.S.A.

Now
22 °F

Mostly cloudy.


Feels Like: 10 °F
Forecast: 21 / 29 °F
Wind: 12 mph from West

Location: Detroit Metropolitan Wayne County Airport

Current Time: Nov 28, 2014 at 2:22:28 AM

Latest Report: Nov 28, 2014 at 1:53 AM


Visibility: 10 mi

Pressure: 30.34 "Hg

Humidity: 60%

Dew point: 10 °F

Location of LivoniaLocation

Historic Weather in Livonia — Graph

°F

Livonia temperature yesterday

Maximum temperature yesterday: 35 °F (at 11:53 AM)
Minimum temperature yesterday: 22 °F (at 11:53 PM)
Average temperature yesterday: 29 °F

Past Weeks' High & Low Weather Summary

 TemperatureHumidityPressure
High58 °F (Nov 24, 11:53 AM)100% (Nov 17, 2:59 AM)30.51 "Hg (Nov 17, 2:59 AM)
Low11 °F (Nov 18, 6:53 AM)48% (Nov 21, 12:53 PM)29.08 "Hg (Nov 24, 3:53 AM)
Average30 °F73%30.04 "Hg
* Reported Nov 13 12:53 AM — Nov 28 12:53 AM, Livonia, Weather by CustomWeather, © 2014

Note: Actual official high and low records may vary slightly from our data, if they occured in-between our weather recording intervals... More about our weather records

Advertising

Livonia weather history for previous 24 hours

 ConditionsComfort  
Time TempWeatherWind HumidityBarometerVisibility
12:53 AM
Nov 28
22 °FOvercast.6 mph66%30.33 "Hg10 mi
11:53 PM
Nov 27
22 °FPassing clouds.10 mph62%30.33 "Hg10 mi
10:53 PM24 °FPassing clouds.12 mph62%30.32 "Hg10 mi
9:53 PM27 °FLight snow. Overcast.10 mph69%30.32 "Hg9 mi
8:53 PM27 °FPartly cloudy.7 mph69%30.30 "Hg10 mi
7:53 PM27 °FPassing clouds.9 mph72%30.30 "Hg10 mi
6:53 PM29 °FLight snow. Overcast.14 mph69%30.26 "Hg9 mi
5:53 PM31 °FOvercast.14 mph67%30.25 "Hg10 mi
4:53 PM31 °FOvercast.12 mph67%30.22 "Hg10 mi
3:53 PM32 °FLight snow. Overcast.9 mph66%30.21 "Hg9 mi
2:53 PM33 °FMore clouds than sun.12 mph63%30.18 "Hg10 mi
1:53 PM34 °FPartly sunny.14 mph61%30.17 "Hg10 mi
12:53 PM34 °FPartly sunny.13 mph61%30.17 "Hg10 mi
11:53 AM35 °FPartly sunny.10 mph61%30.18 "Hg10 mi
10:53 AM34 °FBroken clouds.8 mph61%30.20 "Hg10 mi
9:53 AM30 °FMore clouds than sun.5 mph69%30.19 "Hg10 mi
8:53 AM29 °FMostly cloudy.6 mph69%30.18 "Hg10 mi
7:53 AM26 °FBroken clouds.7 mph74%30.16 "Hg10 mi
6:53 AM27 °FPassing clouds.No wind75%30.16 "Hg10 mi
5:53 AM26 °FMostly cloudy.3 mph77%30.14 "Hg10 mi
4:53 AM28 °FMostly cloudy.9 mph78%30.13 "Hg10 mi
3:53 AM29 °FMostly cloudy.12 mph75%30.12 "Hg10 mi
2:53 AM30 °FMostly cloudy.9 mph75%30.11 "Hg10 mi
Weather by CustomWeather, © 2014

See weather overviewHow to use our weather pages